Regional Weather Roundup
Issued by NWS Sioux Falls, SD

Home | Current Version | Previous Version | Graphics & Text | Print | Product List | Glossary Off
Versions: 1 2 3 4 5 6 7 8 9 10 11 12 13 14 15 16 17 18 19 20 21 22 23 24 25 26 27 28 29 30 31 32 33 34 35 36 37 38 39 40 41 42 43 44 45 46 47 48 49 50

000
ASUS43 KFSD 221102
RWRFSD

WEATHER ROUNDUP FOR SE SOUTH DAKOTA/SW MINNESOTA/NW IOWA
NATIONAL WEATHER SERVICE SIOUX FALLS SD
600 AM CDT WED MAR 22 2017

NOTE: "FAIR" INDICATES FEW OR NO CLOUDS BELOW 12,000 FEET WITH NO
SIGNIFICANT WEATHER AND OR OBSTRUCTIONS TO VISIBILITY.


SDZ038>040-050-052>070-221200-
SOUTHEAST SOUTH DAKOTA

CITY           SKY/WX    TMP DP  RH WIND       PRES   REMARKS
BROOKINGS      CLOUDY    24  14  65 SE15      30.40F WCI  11
CHAMBERLAIN    CLOUDY    31  25  80 SE18G24   30.30F WCI  19
HURON          CLOUDY    28  18  66 SE15G23   30.36F WCI  16
MADISON        CLOUDY    25  19  80 SE14      30.39F WCI  13
MITCHELL       CLOUDY    30  20  66 SE17      30.38F WCI  18
SIOUX FALLS    CLOUDY    27  17  66 SE12      30.43F WCI  17
WINNER         CLOUDY    32  27  81 SE16      30.26S WCI  21
YANKTON        CLOUDY    28  19  69 E10       30.42S WCI  19
$$

MNZ071-072-080-081-089-090-097-098-221200-
SOUTHWEST MINNESOTA

CITY           SKY/WX    TMP DP  RH WIND       PRES   REMARKS
FAIRMONT       CLOUDY    21  16  81 E7        30.49F WCI  12
JACKSON        CLEAR     23  16  74 E8        30.46S WCI  14
LUVERNE        CLOUDY    27  16  63 SE10      30.45S WCI  17
MARSHALL       CLOUDY    20  13  74 SE7       30.48S WCI  11
MONTEVIDEO     CLOUDY    18  12  79 SE9       30.50S WCI   6
PIPESTONE      CLOUDY    25  10  54 SE10      30.42S WCI  15
REDWOOD FALLS  PTCLDY    21   9  59 E8        30.49F WCI  11
TRACY          CLOUDY    21  15  78 SE6       30.47S WCI  13
WINDOM         CLOUDY    19  14  79 E7        30.46S WCI  10
WORTHINGTON    CLOUDY    23  15  71 E9        30.45S WCI  13
$$

IAZ001>003-012>014-020>022-031-032-NEZ013-014-SDZ071-221200-
NORTHWEST IOWA

CITY           SKY/WX    TMP DP  RH WIND       PRES   REMARKS
CHEROKEE       PTCLDY    26  18  71 E6        30.45S WCI  20
DENISON        MOCLDY    28  18  64 E10G17    30.41S WCI  19
ESTHERVILLE    CLOUDY    21  16  81 E9        30.46F WCI  11
LE MARS        MOCLDY    28  18  64 E8        30.45S WCI  20
ORANGE CITY    PTCLDY    27  18  69 E7        30.43F WCI  19
SHELDON        PTCLDY    25  19  80 E9        30.43F WCI  15
SIOUX CITY     CLOUDY    30  18  60 E12       30.44S WCI  20
SPENCER        CLOUDY    23  16  74 E7        30.46S WCI  15
STORM LAKE     CLOUDY    25  19  80 E13       30.43F WCI  13
$$

ABBREVIATIONS USED IN REMARKS
   TC - TEMPERATURE IN CELSIUS
  WCI - WIND CHILL INDEX
   HX - HEAT INDEX
  VSB - VISIBILITY





USA.gov is the U.S. government's official web portal to all federal, state and local government web resources and services.